OneWeb SL0253

operational
NORAD ID: 48971 Int'l Des: 2021-060 Owner: ONEWEBN Country: UK Constellation: oneweb
LEOCIRCULARPOLARONEWEB_TYPE

About OneWeb SL0253

Description loading...

Live Position

Loading 3D Globe...

Upcoming Passes

Altitude History

Altitude vs Time

uPlot chart will show altitude changes over time

Two-Line Element Set

1 48971U 21060E 26102.63929553 -.00000012 00000-0 -66094-4 0 9995
2 48971 87.9058 241.7982 0001846 97.8252 262.3089 13.16593521230969
Epoch: Apr 12, 2026 • Age: 14 hours

Current Status

Altitude 1200.1 km
Velocity 7.26 km/s
Sub-Earth Point 25.74°N, 145.91°E
Launch Date Jul 1, 2021
Age 4.7 years
Type internet

Technical Details

Classification Payload
Mass 148.00 kg
Dry Mass 140.00 kg
Total Mass 148.00 kg
Length 1.30 m
Diameter 1.00 m
Span 5.00 m
Shape Trapezoid+2 pan
Manufacturer ONEWUS
Bus Type ARROW
Phase Status In Orbit
Owner/State ONEWEBN/UK

Large Constellations

Loading constellations...